Regional Weather Roundup
Issued by NWS Green Bay, WI

Home | Current Version | Previous Version | Graphics & Text | Print | Product List | Glossary Off
Versions: 1 2 3 4 5 6 7 8 9 10 11 12 13 14 15 16 17 18 19 20 21 22 23 24 25 26 27 28 29 30 31 32 33 34 35 36 37 38 39 40 41 42 43 44 45 46 47 48 49 50

000
ASUS43 KGRB 281059
RWRGRB

NORTH-CENTRAL AND NORTHEAST WISCONSIN REGIONAL WEATHER ROUNDUP
NATIONAL WEATHER SERVICE GREEN BAY WI
500 AM CST WED JAN 28 2015

WIZ005-009-010>012-018-019-281200-
NORTH CENTRAL WISCONSIN

CITY           SKY/WX    TMP DP  RH WIND       PRES   REMARKS
IRONWOOD       CLOUDY    25  21  86 S6        30.06F
MANITOWISH WTR NOT AVBL
ARBOR VITAE    NOT AVBL
EAGLE RIVER    NOT AVBL
LAND O LAKES   NOT AVBL
RHINELANDER    CLOUDY    22  20  92 S8        30.12S FOG
PHILLIPS       NOT AVBL
ANTIGO         NOT AVBL
TOMAHAWK       NOT AVBL
MERRILL        NOT AVBL
$$

WIZ013-073-281200-
NORTHEAST WISCONSIN

CITY           SKY/WX    TMP DP  RH WIND       PRES   REMARKS
IRON MOUNTAIN  CLOUDY    21  16  81 SE3       30.16R
MARINETTE      CLOUDY    19  16  86 SW5       30.22F
$$

WIZ017-030-035>037-045-281200-
CENTRAL WISCONSIN

CITY           SKY/WX    TMP DP  RH WIND       PRES   REMARKS
MEDFORD        NOT AVBL
WAUSAU         CLOUDY    23  19  85 SE7       30.14S
MOSINEE        NOT AVBL
MARSHFIELD     CLOUDY    25  22  88 S10       30.13F FOG
WISC RAPIDS    CLOUDY    24  20  84 SE6       30.17F
STEVENS POINT  NOT AVBL
WAUPACA        NOT AVBL
SHAWANO        NOT AVBL
CLINTONVILLE   NOT AVBL
$$

WIZ038-039-048-051-281200-
FOX VALLEY

CITY           SKY/WX    TMP DP  RH WIND       PRES   REMARKS
NWS GREEN BAY  MOCLDY    16  14  92 CALM      30.23S
APPLETON       NOT AVBL
OSHKOSH        CLOUDY    21  16  81 S7        30.21F
FOND DU LAC    MOCLDY    22  15  75 S6        30.22S
$$

WIZ022-050-052-281200-
EAST CENTRAL WISCONSIN

CITY           SKY/WX    TMP DP  RH WIND       PRES   REMARKS
STURGEON BAY   MOCLDY    19  12  73 S5        30.24F
MANITOWOC      NOT AVBL
SHEBOYGAN      PTCLDY    20  16  84 CALM      30.24S
$$

LMZ563-521-522-541>543-281200-
LAKESHORE

STATION/POSITION TIME  TEMP    WIND        PRES    VSBY  WAVE
                       AIR SEA DIR/SP/G                  HT/PER
                 (UTC) (F)     (DEG/KT/KT) (MB)    (MI)  (FT/S)
SHEBOYGAN LKSHOR 1000   27     150/  5/  6 1025.4F
KEWAUNEE LKSHORE 1000   20      CALM  /  1 1023.1F
NORTHPORT PIER   1000   17      CALM  /  4 1024.4R
SISTER BAY LKSHO 1000   19        CALM       N/A
CHAMBERS ISLAND  1000   18     170/  2/  3 1024.0S
MENOMINEE LKSHOR 1000   18     200/  4     1024.4F
$$



USA.gov is the U.S. government's official web portal to all federal, state and local government web resources and services.